Laredo, TX

12:36 PM CDT on September 30, 2016 (GMT -0500)
Laredo International

Weather History for KLRD - May, 2013

Change the Weather History Date:

Monday, May 6, 2013

  Actual Average Record
Temperature  
Mean Temperature 76 °F 81 °F  
Max Temperature 88 °F 92 °F 109 °F (1998)
Min Temperature 63 °F 69 °F 41 °F (1917)
Degree Days  
Heating Degree Days 0 0  
Month to date heating degree days 2 0  
Since 1 July heating degree days 517 926  
Cooling Degree Days 11 15  
Month to date cooling degree days 49 89  
Year to date cooling degree days 746 689  
Growing Degree Days 24 (Base 50)    
Moisture  
Dew Point 53 °F    
Average Humidity 50    
Maximum Humidity 87    
Minimum Humidity 23    
Precipitation  
Precipitation 0.00 in 0.08 in 2.24 in (1963)
Month to date precipitation T 0.45  
Year to date precipitation 2.49 4.83  
Sea Level Pressure  
Sea Level Pressure 30.00 in    
Wind  
Wind Speed 12 mph (SE)    
Max Wind Speed 24 mph    
Max Gust Speed 27 mph    
Visibility 10 miles    
Events      
T = Trace of Precipitation, MM = Missing Value Source: NWS Daily Summary

Daily Weather History Graph

Daily Weather History Graph

Search for Another Location

Airport or City:

Trip Planner

Search our weather history database for the weather conditions in past years. The results will help you decide how hot, cold, wet, or windy it might be!

Date:

Astronomy

May. 06, 2013 Rise Set
Actual Time 6:54 AM CDT 8:14 PM CDT
Civil Twilight 6:29 AM CDT 8:39 PM CDT
Nautical Twilight 5:59 AM CDT 9:09 PM CDT
Astronomical Twilight 5:29 AM CDT 9:40 PM CDT
Moon 4:41 AM CDT (5/6) 5:29 PM CDT (5/6)
Length of Visible Light 14h 10m
Length of Day
13h 20m
Waning Crescent, 11% of the Moon is Illuminated
May 6
Waning Crescent
May 9
New
May 17
First Quarter
May 24
Full
May 31
Last Quarter

Hourly Weather History & Observations

Time (CDT) Temp. Dew Point Humidity Pressure Visibility Wind Dir Wind Speed Gust Speed Precip Events Conditions
12:56 AM 70.9 °F 52.0 °F 51% 30.04 in 10.0 mi ESE 10.4 mph - N/A   Clear
1:56 AM 68.9 °F 54.0 °F 59% 30.03 in 10.0 mi SSE 8.1 mph - N/A   Clear
2:56 AM 68.0 °F 54.0 °F 61% 30.02 in 10.0 mi SSE 10.4 mph - N/A   Clear
3:56 AM 66.9 °F 54.9 °F 65% 30.01 in 10.0 mi SE 8.1 mph - N/A   Clear
4:56 AM 64.9 °F 55.9 °F 73% 30.00 in 10.0 mi SSE 10.4 mph - N/A   Clear
5:56 AM 63.9 °F 56.8 °F 78% 30.00 in 10.0 mi SE 9.2 mph - N/A   Clear
6:56 AM 63.0 °F 57.9 °F 84% 30.02 in 10.0 mi SE 6.9 mph - N/A   Clear
7:56 AM 63.9 °F 59.0 °F 84% 30.06 in 10.0 mi ESE 6.9 mph - N/A   Clear
8:56 AM 68.9 °F 59.9 °F 73% 30.07 in 10.0 mi SE 11.5 mph - N/A   Clear
9:56 AM 70.9 °F 59.0 °F 66% 30.06 in 10.0 mi SE 12.7 mph - N/A   Clear
10:56 AM 74.8 °F 56.8 °F 53% 30.05 in 10.0 mi SE 11.5 mph - N/A   Clear
11:56 AM 79.0 °F 50.0 °F 36% 30.05 in 10.0 mi SE 11.5 mph - N/A   Clear
12:56 PM 81.0 °F 45.9 °F 29% 30.03 in 10.0 mi SSE 13.8 mph - N/A   Partly Cloudy
1:56 PM 82.9 °F 48.9 °F 31% 30.00 in 10.0 mi ESE 12.7 mph - N/A   Partly Cloudy
2:56 PM 83.8 °F 45.9 °F 26% 29.98 in 10.0 mi SE 8.1 mph 19.6 mph N/A   Clear
3:56 PM 86.0 °F 45.9 °F 25% 29.94 in 10.0 mi SSE 13.8 mph - N/A   Clear
4:56 PM 86.9 °F 45.0 °F 23% 29.91 in 10.0 mi SE 11.5 mph 20.7 mph N/A   Clear
5:56 PM 86.9 °F 45.9 °F 24% 29.91 in 10.0 mi ESE 15.0 mph - N/A   Clear
6:56 PM 86.0 °F 46.9 °F 26% 29.91 in 10.0 mi SE 12.7 mph - N/A   Clear
7:56 PM 82.9 °F 52.9 °F 35% 29.92 in 10.0 mi ESE 18.4 mph 24.2 mph N/A   Clear
8:56 PM 77.9 °F 52.9 °F 42% 29.96 in 10.0 mi ESE 15.0 mph - N/A   Clear
9:56 PM 75.9 °F 52.9 °F 45% 29.98 in 10.0 mi ESE 15.0 mph - N/A   Clear
10:56 PM 73.9 °F 54.0 °F 50% 30.01 in 10.0 mi SE 15.0 mph - N/A   Clear
11:56 PM 72.0 °F 54.9 °F 55% 30.01 in 10.0 mi SE 10.4 mph - N/A   Clear